Weather in Okny

Ukraine / Odesa District     47°32′24″N   29°27′27″E
temp.,
°C
wind,
m/s
gust,
m/s
humid.,
%
clouds,
%
prec.,
mm/h
press.,
hPa
HPBL,
m
21 january, thu
thu2123:00−6se359765 0.0 102294
02:00−5se339635 0.0 102274
05:00−5sse339518 0.0 102264
08:00−4sse349422 0.0 102283
11:000s478098 0.0 1022265
14:00+1s478283 0.0 1020298
17:00−1s47900 0.0 1020124
20:00−1s49921 0.0 1020163
22 january, fri
fri2223:00−1s499452 0.0 1020180
02:00−2s479249 0.0 1019138
05:00−2s349216 0.0 101884
08:00−1s369054 0.0 101793
11:00+2s5882100 0.0 1017242
14:00+4s5108198 0.0 1015352
17:00+2sse478795 0.0 1014133
20:00+1sse478975 0.0 1014120
23 january, sat
sat2323:000s499144 0.0 1013187
02:00+1s4108749 0.0 1012195
05:00+1s4989100 0.0 1011196
08:000s498950 0.0 1011187
11:00+4s610800 0.0 1011313
14:00+7s5107011 0.0 1009397
17:00+4sse5109262 0.0 1008175
20:00+4sse5139281 0.0 1008219
24 january, sun
sun2423:00+5sse81693100 0.0 1006445
02:00+6s102090100 0.0 1006637
05:00+7sse91891100 0.1 1003617
08:00+7sse101892100 1.8 1002681
11:00+8s111889100 0.9 1001886
14:00+10ssw9146783 0.9 1001934
17:00+7s513760 0.0 1002294
20:00+5sse5118622 0.0 1003234
25 january, mon
mon2523:00+5s5139367 0.4 1003322
02:00+3ssw498833 0.4 1003178
05:00+3sse348967 0.0 100381
08:00+3se5119183 0.0 1003223
11:00+7se51297100 0.0 1000437
14:00+8sse91894100 2.4 996843
17:00+8sse111893100 2.9 992752
20:00+7sse91692100 3.9 990897